Location: ??? ????
(38.0580°N, 23.1536°E)
Time: 14:45:21
(UTC+00:00)

IRIDIUM 104 - Pass Details

Date: 13 December 2025
Orbit: 776 x 779 km, 86.4° (Epoch: 17 January)

Event Time Altitude Azimuth Distance (km) Brightness Sun altitude
Rises 15:32:31 0° 359° (N) 3,268 7.3 -5.1°
Reaches altitude 10° 15:34:53 10° 2° (N) 2,336 6.6 -5.5°
Maximum altitude 15:40:06 73° 87° (E) 815 4.3 -6.4°
Drops below altitude 10° 15:45:17 10° 172° (S) 2,318 7.0 -7.4°
Sets 15:47:38 0° 174° (S) 3,241 7.8 -7.8°
